Date String (YYYY-MM-DD hh:mm:ss) UTC,Instrument flags,absolute air pressure of the measurement (hPa),sample flow rate (lpm),inlet stack bypass flow (lpm),air temperature of the measurement (°C),ambient temperature measured by the external sensor (°C),aerosol sample conditioner tube jacket temperature (°C),OPC LED temperature (°C),internal box temperature (°C),relative humidity of the measurement (%),span deviation,mass concentration of particles derived from Lorenz-Mie calculation of OPC scattering (μg/m³),mass concentration of particles derived from Lorenz-Mie calculation of OPC scattering (μg/m³),mass concentration of particles derived from Lorenz-Mie calculation of OPC scattering (μg/m³)
DateTimeUTC,F1_M11,P_M11,Q1_M11,Q2_M11,T1_M11,T2_M11,T3_M11,T4_M11,T5_M11,U1_M11,ZSPAN_M11,X0_M11,X2_M11,X1_M11
2023-06-24 19:00:00,SystemResetWarning,0830.4,4.99,000.00,029.1,026.2,000.0,037.5,030.5,14.3,0000.0,0011.29,0004.61,0003.83
2023-06-24 19:01:00,SystemResetWarning,0830.3,5.01,000.00,029.1,026.6,000.0,037.5,030.6,13.6,0000.0,0011.82,0004.66,0003.82
2023-06-24 19:02:00,SystemResetWarning,0830.3,5.00,000.00,029.1,026.9,000.0,037.5,030.6,12.9,0000.0,0012.27,0004.68,0003.82
2023-06-24 19:03:00,SystemResetWarning,0830.3,5.00,000.00,029.1,027.1,000.0,037.6,030.7,13.3,0000.0,0012.10,0004.63,0003.81
2023-06-24 19:04:00,SystemResetWarning,0830.3,4.99,000.00,029.1,027.4,000.0,037.6,030.7,13.4,0000.0,0011.44,0004.58,0003.80
2023-06-24 19:05:00,SystemResetWarning,0830.3,5.00,000.00,029.2,027.6,000.0,037.6,030.8,14.0,0000.0,0011.87,0004.63,0003.81
2023-06-24 19:06:00,SystemResetWarning,0830.3,5.00,000.00,029.2,027.6,000.0,037.6,030.9,13.7,0000.0,0013.04,0004.64,0003.81
2023-06-24 19:07:00,SystemResetWarning,0830.3,4.99,000.00,029.2,026.1,000.0,037.6,030.9,12.7,0000.0,0013.26,0004.65,0003.81
2023-06-24 19:08:00,SystemResetWarning,0830.2,5.01,000.00,029.2,025.2,000.0,037.5,030.9,12.8,0000.0,0014.07,0004.68,0003.82
2023-06-24 19:09:00,SystemResetWarning,0830.2,5.00,000.00,029.2,025.6,000.0,037.5,030.8,13.7,0000.0,0014.27,0004.66,0003.81
2023-06-24 19:10:00,SystemResetWarning,0830.1,5.00,000.00,029.1,025.9,000.0,037.5,030.6,15.5,0000.0,0014.45,0004.66,0003.80
2023-06-24 19:11:00,SystemResetWarning,0830.2,5.00,000.00,029.1,026.3,000.0,037.6,030.6,15.3,0000.0,0014.09,0004.64,0003.80
2023-06-24 19:12:00,SystemResetWarning,0830.3,5.01,000.00,029.1,026.6,000.0,037.6,030.6,13.2,0000.0,0013.60,0004.63,0003.80
2023-06-24 19:13:00,SystemResetWarning,0830.3,4.99,000.00,029.1,026.9,000.0,037.6,030.6,12.9,0000.0,0013.34,0004.62,0003.79
2023-06-24 19:14:00,SystemResetWarning,0830.3,4.99,000.00,029.2,027.2,000.0,037.6,030.7,12.9,0000.0,0013.06,0004.58,0003.78
2023-06-24 19:15:00,SystemResetWarning,0830.3,5.00,000.00,029.2,027.4,000.0,037.6,030.8,13.4,0000.0,0014.42,0004.59,0003.78
2023-06-24 19:16:00,SystemResetWarning,0830.3,4.99,000.00,029.2,027.6,000.0,037.7,030.8,14.3,0000.0,0014.57,0004.57,0003.77
2023-06-24 19:17:00,SystemResetWarning,0830.4,4.99,000.00,029.3,027.3,000.0,037.7,030.9,14.4,0000.0,0013.90,0004.57,0003.76
2023-06-24 19:18:00,SystemResetWarning,0830.4,5.00,000.00,029.2,025.6,000.0,037.6,030.8,13.8,0000.0,0014.21,0004.52,0003.75
2023-06-24 19:19:00,SystemResetWarning,0830.2,5.01,000.00,029.2,025.4,000.0,037.6,030.9,13.7,0000.0,0013.18,0004.49,0003.73
2023-06-24 19:20:00,SystemResetWarning,0830.3,5.01,000.00,029.2,025.7,000.0,037.6,030.6,14.0,0000.0,0012.79,0004.52,0003.73
2023-06-24 19:21:00,SystemResetWarning,0830.3,4.99,000.00,029.1,026.0,000.0,037.6,030.5,13.9,0000.0,0012.52,0004.53,0003.73
2023-06-24 19:22:00,SystemResetWarning,0830.3,5.00,000.00,029.1,026.4,000.0,037.6,030.6,12.7,0000.0,0013.32,0004.57,0003.74
2023-06-24 19:23:00,SystemResetWarning,0830.3,5.00,000.00,029.1,026.7,000.0,037.6,030.7,14.1,0000.0,0013.88,0004.55,0003.73
2023-06-24 19:24:00,SystemResetWarning,0830.3,5.00,000.00,029.2,027.0,000.0,037.6,030.7,13.4,0000.0,0013.98,0004.54,0003.73
2023-06-24 19:25:00,SystemResetWarning,0830.4,5.00,000.00,029.2,027.3,000.0,037.6,030.7,12.8,0000.0,0014.36,0004.61,0003.75
2023-06-24 19:26:00,SystemResetWarning,0830.4,5.00,000.00,029.2,027.5,000.0,037.7,030.8,11.9,0000.0,0013.48,0004.68,0003.77
2023-06-24 19:27:00,SystemResetWarning,0830.4,5.00,000.00,029.2,027.7,000.0,037.7,030.8,12.0,0000.0,0013.18,0004.69,0003.78
2023-06-24 19:28:00,SystemResetWarning,0830.3,4.99,000.00,029.3,026.9,000.0,037.7,030.9,13.4,0000.0,0013.11,0004.69,0003.79
2023-06-24 19:29:00,SystemResetWarning,0830.2,5.00,000.00,029.2,024.8,000.0,037.6,030.6,13.9,0000.0,0012.50,0004.73,0003.80
2023-06-24 19:30:00,SystemResetWarning,0830.2,5.00,000.00,029.2,024.3,000.0,037.5,030.7,14.4,0000.0,0012.59,0004.72,0003.80
2023-06-24 19:31:00,SystemResetWarning,0830.3,5.01,000.00,029.1,024.8,000.0,037.5,030.5,13.6,0000.0,0012.58,0004.67,0003.79
2023-06-24 19:32:00,SystemResetWarning,0830.3,5.01,000.00,029.0,025.2,000.0,037.5,030.3,13.2,0000.0,0012.52,0004.64,0003.79
2023-06-24 19:33:00,SystemResetWarning,0830.3,5.00,000.00,029.0,025.7,000.0,037.5,030.3,12.7,0000.0,0011.97,0004.63,0003.80
2023-06-24 19:34:00,SystemResetWarning,0830.3,5.00,000.00,029.0,026.1,000.0,037.5,030.4,13.9,0000.0,0011.86,0004.67,0003.81
2023-06-24 19:35:00,SystemResetWarning,0830.3,4.99,000.00,029.0,026.5,000.0,037.5,030.5,15.4,0000.0,0011.32,0004.66,0003.81
2023-06-24 19:36:00,SystemResetWarning,0830.3,4.99,000.00,029.0,026.8,000.0,037.6,030.5,14.6,0000.0,0010.89,0004.66,0003.81
2023-06-24 19:37:00,SystemResetWarning,0830.3,5.02,000.00,029.1,027.1,000.0,037.6,030.6,14.0,0000.0,0010.48,0004.62,0003.80
2023-06-24 19:38:00,SystemResetWarning,0830.3,5.01,000.00,029.1,027.3,000.0,037.6,030.7,13.2,0000.0,0010.42,0004.63,0003.79
2023-06-24 19:39:00,SystemResetWarning,0830.3,5.00,000.00,029.1,027.5,000.0,037.6,030.7,13.0,0000.0,0010.71,0004.63,0003.79
2023-06-24 19:40:00,SystemResetWarning,0830.3,4.99,000.00,029.2,027.7,000.0,037.6,030.8,13.6,0000.0,0010.56,0004.66,0003.80
2023-06-24 19:41:00,SystemResetWarning,0830.3,5.00,000.00,029.2,027.8,000.0,037.6,030.8,13.3,0000.0,0010.65,0004.70,0003.83
2023-06-24 19:42:00,SystemResetWarning,0830.3,4.99,000.00,029.2,027.6,000.0,037.6,030.9,13.4,0000.0,0010.81,0004.76,0003.85
2023-06-24 19:43:00,SystemResetWarning,0830.3,4.99,000.00,029.3,025.5,000.0,037.6,030.9,13.6,0000.0,0011.12,0004.79,0003.85
2023-06-24 19:44:00,SystemResetWarning,0830.3,5.01,000.00,029.2,024.2,000.0,037.5,030.8,12.6,0000.0,0011.30,0004.79,0003.87
2023-06-24 19:45:00,SystemResetWarning,0830.2,5.01,000.00,029.2,024.5,000.0,037.5,030.7,13.0,0000.0,0010.91,0004.76,0003.87
2023-06-24 19:46:00,SystemResetWarning,0830.2,4.99,000.00,029.1,025.0,000.0,037.5,030.4,14.5,0000.0,0010.86,0004.77,0003.87
2023-06-24 19:47:00,SystemResetWarning,0830.3,4.99,000.00,029.0,025.4,000.0,037.5,030.3,13.6,0000.0,0010.82,0004.73,0003.87
2023-06-24 19:48:00,SystemResetWarning,0830.3,5.01,000.00,029.0,025.9,000.0,037.5,030.4,13.2,0000.0,0010.99,0004.74,0003.89
2023-06-24 19:49:00,SystemResetWarning,0830.3,5.01,000.00,029.0,026.3,000.0,037.5,030.5,13.4,0000.0,0010.95,0004.74,0003.90
2023-06-24 19:50:00,SystemResetWarning,0830.2,5.00,000.00,029.0,026.7,000.0,037.5,030.5,13.1,0000.0,0010.79,0004.73,0003.91
2023-06-24 19:51:00,SystemResetWarning,0830.2,5.00,000.00,029.1,027.0,000.0,037.5,030.6,13.7,0000.0,0012.69,0004.72,0003.92
2023-06-24 19:52:00,SystemResetWarning,0830.3,5.00,000.00,029.1,027.2,000.0,037.5,030.6,13.8,0000.0,0013.12,0004.74,0003.94
2023-06-24 19:53:00,SystemResetWarning,0830.2,5.00,000.00,029.1,027.4,000.0,037.6,030.7,13.4,0000.0,0013.58,0004.79,0003.95
2023-06-24 19:54:00,SystemResetWarning,0830.3,5.00,000.00,029.1,027.6,000.0,037.6,030.7,13.6,0000.0,0013.29,0004.82,0003.96
2023-06-24 19:55:00,SystemResetWarning,0830.3,5.00,000.00,029.2,027.8,000.0,037.6,030.8,12.5,0000.0,0012.93,0004.84,0003.97
2023-06-24 19:56:00,SystemResetWarning,0830.2,5.00,000.00,029.2,027.8,000.0,037.6,030.8,11.7,0000.0,0012.97,0004.84,0003.99
2023-06-24 19:57:00,SystemResetWarning,0830.2,4.99,000.00,029.2,026.4,000.0,037.6,030.9,11.3,0000.0,0013.45,0004.82,0004.00
2023-06-24 19:58:00,SystemResetWarning,0830.2,5.01,000.00,029.2,025.3,000.0,037.5,030.8,13.5,0000.4,0013.97,0004.82,0004.02
2023-06-24 19:59:00,SystemResetWarning,0830.3,5.01,000.00,029.2,025.5,000.0,037.5,030.8,12.2,0000.0,0013.98,0004.84,0004.02
